Weather History for KSAZ - November, 2012

Change the Weather History Date:

Friday, November 16, 2012

  Actual Average Record
Temperature  
Mean Temperature 24 °F -  
Max Temperature 37 °F 35 °F 62 °F (2001)
Min Temperature 12 °F 20 °F 0 °F (1997)
Degree Days  
Heating Degree Days 40    
Moisture  
Dew Point 12 °F    
Average Humidity 61    
Maximum Humidity 93    
Minimum Humidity 24    
Precipitation  
Precipitation 0.00 in - - ()
Sea Level Pressure  
Sea Level Pressure 30.35 in    
Wind  
Wind Speed 3 mph (SSE)    
Max Wind Speed 16 mph    
Max Gust Speed 20 mph    
Visibility 10 miles    
Events      
Averages and records for this station are not official NWS values.
T = Trace of Precipitation, MM = Missing Value Source: NWS Daily Summary

Daily Weather History Graph

Daily Weather History Graph

Search for Another Location

Airport or City:

Trip Planner

Search our weather history database for the weather conditions in past years. The results will help you decide how hot, cold, wet, or windy it might be!

Date:

Astronomy

Nov. 16, 2012 Rise Set
Actual Time 7:22 AM CST 4:44 PM CST
Civil Twilight 6:50 AM CST 5:17 PM CST
Nautical Twilight 6:13 AM CST 5:54 PM CST
Astronomical Twilight 5:37 AM CST 6:29 PM CST
Moon 10:21 AM CST (11/16) 7:43 PM CST (11/16)
Length of Visible Light 10h 27m
Length of Day
9h 21m
Waxing Crescent, 12% of the Moon is Illuminated
Nov 16
Waxing Crescent
Nov 20
First Quarter
Nov 28
Full
Dec 6
Last Quarter
Dec 13
New

Hourly Weather History & Observations

Time (CST) Temp. Windchill Dew Point Humidity Pressure Visibility Wind Dir Wind Speed Gust Speed Precip Events Conditions
12:13 AM 17.6 °F - 12.2 °F 79% 30.46 in 10.0 mi Calm Calm - N/A   Clear
12:34 AM 17.6 °F - 12.2 °F 79% 30.47 in 10.0 mi Calm Calm - N/A   Clear
12:53 AM 17.6 °F - 10.4 °F 73% 30.46 in 10.0 mi Calm Calm - N/A   Clear
1:13 AM 15.8 °F - 10.4 °F 79% 30.46 in 10.0 mi Calm Calm - N/A   Clear
1:34 AM 15.8 °F - 10.4 °F 79% 30.46 in 10.0 mi Calm Calm - N/A   Clear
1:53 AM 15.8 °F - 10.4 °F 79% 30.46 in 10.0 mi Calm Calm - N/A   Clear
2:13 AM 15.8 °F - 10.4 °F 79% 30.46 in 10.0 mi Calm Calm - N/A   Clear
2:34 AM 15.8 °F - 10.4 °F 79% 30.46 in 10.0 mi Calm Calm - N/A   Clear
2:53 AM 15.8 °F - 12.2 °F 86% 30.46 in 10.0 mi Calm Calm - N/A   Clear
3:13 AM 14.0 °F - 12.2 °F 93% 30.46 in 10.0 mi Calm Calm - N/A   Clear
3:34 AM 14.0 °F - 12.2 °F 93% 30.45 in 10.0 mi Calm Calm - N/A   Clear
3:53 AM 14.0 °F - 10.4 °F 86% 30.44 in 10.0 mi Calm Calm - N/A   Clear
4:14 AM 14.0 °F - 10.4 °F 86% 30.43 in 10.0 mi Calm Calm - N/A   Clear
4:33 AM 12.2 °F - 10.4 °F 92% 30.43 in 10.0 mi Calm Calm - N/A   Clear
4:53 AM 12.2 °F - 10.4 °F 92% 30.43 in 10.0 mi Calm Calm - N/A   Clear
5:13 AM 12.2 °F - 10.4 °F 92% 30.42 in 10.0 mi Calm Calm - N/A   Clear
5:33 AM 12.2 °F - 10.4 °F 92% 30.42 in 10.0 mi Calm Calm - N/A   Clear
5:53 AM 12.2 °F - 10.4 °F 92% 30.42 in 10.0 mi Calm Calm - N/A   Clear
6:13 AM 12.2 °F - 10.4 °F 92% 30.41 in 10.0 mi Calm Calm - N/A   Clear
6:34 AM 12.2 °F - 10.4 °F 92% 30.42 in 10.0 mi Calm Calm - N/A   Clear
6:53 AM 12.2 °F - 10.4 °F 92% 30.42 in 10.0 mi Calm Calm - N/A   Clear
7:13 AM 12.2 °F - 10.4 °F 92% 30.41 in 10.0 mi Calm Calm - N/A   Clear
7:34 AM 12.2 °F - 10.4 °F 92% 30.42 in 10.0 mi Calm Calm - N/A   Clear
7:53 AM 12.2 °F - 10.4 °F 92% 30.42 in 10.0 mi Calm Calm - N/A   Clear
8:13 AM 17.6 °F 12.3 °F 12.2 °F 79% 30.42 in 10.0 mi SE 3.5 mph - N/A   Clear
8:34 AM 19.4 °F 14.3 °F 12.2 °F 74% 30.43 in 10.0 mi South 3.5 mph - N/A   Clear
8:53 AM 21.2 °F 14.9 °F 15.8 °F 80% 30.43 in 10.0 mi South 4.6 mph - N/A   Clear
9:13 AM 23.0 °F 13.9 °F 15.8 °F 74% 30.43 in 10.0 mi SSE 8.1 mph - N/A   Clear
9:34 AM 24.8 °F 16.9 °F 15.8 °F 69% 30.43 in 10.0 mi SSE 6.9 mph - N/A   Clear
9:53 AM 26.6 °F 18.2 °F 15.8 °F 64% 30.43 in 10.0 mi SSE 8.1 mph - N/A   Clear
10:13 AM 28.4 °F 21.2 °F 12.2 °F 51% 30.44 in 10.0 mi South 6.9 mph - N/A   Clear
10:34 AM 28.4 °F 19.7 °F 12.2 °F 51% 30.44 in 10.0 mi SSE 9.2 mph - N/A   Clear
10:53 AM 30.2 °F 22.6 °F 12.2 °F 47% 30.44 in 10.0 mi South 8.1 mph - N/A   Clear
11:13 AM 32.0 °F 26.4 °F 12.2 °F 44% 30.43 in 10.0 mi South 5.8 mph - N/A   Clear
11:33 AM 33.8 °F 25.8 °F 12.2 °F 41% 30.42 in 10.0 mi South 10.4 mph - N/A   Clear
11:53 AM 35.6 °F 28.6 °F 10.4 °F 35% 30.40 in 10.0 mi SSE 9.2 mph - N/A   Clear
12:13 PM 35.6 °F 28.0 °F 10.4 °F 35% 30.39 in 10.0 mi South 10.4 mph - N/A   Clear
12:33 PM 35.6 °F 28.0 °F 10.4 °F 35% 30.36 in 10.0 mi SE 10.4 mph - N/A   Clear
12:53 PM 35.6 °F 28.0 °F 10.4 °F 35% 30.35 in 10.0 mi SSE 10.4 mph - N/A   Clear
1:13 PM 37.4 °F 32.8 °F 10.4 °F 33% 30.34 in 10.0 mi SE 5.8 mph - N/A   Clear
1:34 PM 37.4 °F 30.3 °F 10.4 °F 33% 30.34 in 10.0 mi SSE 10.4 mph - N/A   Clear
1:53 PM 37.4 °F 31.4 °F 8.6 °F 30% 30.33 in 10.0 mi SE 8.1 mph - N/A   Clear
2:13 PM 37.4 °F 29.8 °F 3.2 °F 24% 30.32 in 10.0 mi SSE 11.5 mph - N/A   Clear
2:34 PM 37.4 °F 30.3 °F 6.8 °F 28% 30.31 in 10.0 mi SE 10.4 mph - N/A   Clear
2:53 PM 37.4 °F 30.8 °F 6.8 °F 28% 30.30 in 10.0 mi SE 9.2 mph - N/A   Clear
3:13 PM 37.4 °F 30.8 °F 8.6 °F 30% 30.30 in 10.0 mi SSE 9.2 mph - N/A   Clear
3:34 PM 37.4 °F 31.4 °F 10.4 °F 33% 30.29 in 10.0 mi SE 8.1 mph - N/A   Clear
3:53 PM 37.4 °F 30.8 °F 10.4 °F 33% 30.29 in 10.0 mi SE 9.2 mph - N/A   Clear
4:13 PM 35.6 °F 30.7 °F 12.2 °F 38% 30.28 in 10.0 mi SE 5.8 mph - N/A   Clear
4:34 PM 35.6 °F 29.9 °F 12.2 °F 38% 30.28 in 10.0 mi SE 6.9 mph - N/A   Clear
4:53 PM 33.8 °F 29.6 °F 12.2 °F 41% 30.27 in 10.0 mi SE 4.6 mph - N/A   Clear
5:13 PM 33.8 °F 30.8 °F 12.2 °F 41% 30.27 in 10.0 mi SE 3.5 mph - N/A   Clear
5:34 PM 33.8 °F - 12.2 °F 41% 30.26 in 10.0 mi Calm Calm - N/A   Clear
5:54 PM 32.0 °F - 14.0 °F 48% 30.26 in 10.0 mi Calm Calm - N/A   Clear
6:13 PM 30.2 °F 23.4 °F 14.0 °F 51% 30.25 in 10.0 mi SE 6.9 mph - N/A   Clear
6:34 PM 32.0 °F - 14.0 °F 48% 30.25 in 10.0 mi Calm Calm - N/A   Clear
6:53 PM 32.0 °F 28.7 °F 14.0 °F 48% 30.24 in 10.0 mi SE 3.5 mph - N/A   Clear
7:13 PM 32.0 °F 24.8 °F 14.0 °F 48% 30.23 in 10.0 mi SE 8.1 mph - N/A   Clear
7:53 PM 33.8 °F 26.4 °F 15.8 °F 48% 30.23 in 10.0 mi SSE 9.2 mph - N/A   Clear
8:13 PM 33.8 °F 25.8 °F 15.8 °F 48% 30.22 in 10.0 mi SSE 10.4 mph 16.1 mph N/A   Clear
8:33 PM 33.8 °F 23.5 °F 15.8 °F 48% 30.23 in 10.0 mi SSE 16.1 mph 19.6 mph N/A   Clear
8:53 PM 33.8 °F 25.3 °F 15.8 °F 48% 30.23 in 10.0 mi SSE 11.5 mph 17.3 mph N/A   Clear
9:14 PM 33.8 °F 25.8 °F 15.8 °F 48% 30.22 in 10.0 mi SSE 10.4 mph 16.1 mph N/A   Clear
9:53 PM 33.8 °F 25.8 °F 17.6 °F 52% 30.21 in 10.0 mi SSE 10.4 mph - N/A   Clear
10:14 PM 32.0 °F 24.8 °F 17.6 °F 55% 30.21 in 10.0 mi SSE 8.1 mph - N/A   Clear
10:33 PM 32.0 °F 24.2 °F 19.4 °F 60% 30.21 in 10.0 mi SSE 9.2 mph - N/A   Clear
10:53 PM 32.0 °F 24.2 °F 19.4 °F 60% 30.21 in 10.0 mi SSE 9.2 mph - N/A   Clear
11:14 PM 32.0 °F 23.6 °F 19.4 °F 60% 30.20 in 10.0 mi SSE 10.4 mph - N/A   Clear
11:33 PM 33.8 °F 26.4 °F 19.4 °F 56% 30.20 in 10.0 mi SSE 9.2 mph 16.1 mph N/A   Clear
11:53 PM 33.8 °F 25.8 °F 21.2 °F 60% 30.19 in 10.0 mi SSE 10.4 mph - N/A   Clear